GPS BIIF-10 (40730 NORAD) Tracking and Keplerian Element Data

This shows tracking and keplerian element data for the satellite.

Feedback or suggestion? Click here.




ElementValue
Catalog40730
NameGPS BIIF-10
Epoch Orbit6998
Epoch Day34.14516355
Epoch Year2025
RAAN287.6115
Inclination54.3924
Eccentricity0.0103353
Argument of Perigee22.7167
Mean Anonmoly337.8009
Mean Motion2.00554974
Decay Rate-2E-07
L11 40730U 15033A 25034.14516355 -.00000020 00000+0 00000+0 0 9991
L22 40730 54.3924 287.6115 0103353 22.7167 337.8009 2.00554974 69981



Live tracking and technical data element details for GPS BIIF-10 (NORAD 40730). GPS BIIF-10 can be tracked NOW for your location showing map with azimuth and elevation plus other details from your city location.







IsCatalogInMostPopularTable: catalog: 40730, numindb: 1072
Update: records affected: 1



GetName: 40730 GPS BIIF-10

Hit Count: updated at: Thu, 10 Jul 2025 22:19:37 GMT